GEESAT-3 03

Last updated on Sun Oct 06 2024 00:02:04 GMT+0000 (Coordinated Universal Time)

1 61013U 24159C 24279.55229986 .00023821 00000+0 21356-2 0 9996 2 61013 49.9919 99.1390 0034776 73.9564 286.5204 14.95153252 4622
UTC large
Height (km)
Speed (km/s)
/
Latitude / Longitude
Inclination (degrees)
Orbital Period (minutes)
Azimuth
Elevation
Range (km)
Doppler Factor

Next 0 passes for location: London (51.5072 / 0.1276)

Sorry there are no passes over London.